Home > Weather > Renens > Past weeks

Flag for Switzerland Past Weather in Renens, Vaud, Switzerland — Yesterday and Last 2 Weeks

Now
64 °F

Mild.


Feels Like: 64 °F
Forecast: 55 / 66 °F
Wind: 1 mph from Southwest

Location: Aigle

Current Time: May 28, 2016 at 11:57:49 AM

Latest Report: May 28, 2016 at 11:00 AM


Visibility: N/A

Pressure: 29.93 "Hg

Humidity: 90%

Dew Point: 60 °F

Location of RenensLocation

Past Weather in Renens — Graph

°F

Renens Temperature Yesterday

Maximum temperature yesterday: 75 °F (at 4:00 PM)
Minimum temperature yesterday: 55 °F (at 3:00 AM)
Average temperature yesterday: 66 °F

High & Low Weather Summary for the Past Weeks

 TemperatureHumidityPressure
High75 °F (May 27, 4:00 PM)96% (May 14, 3:00 AM)30.24 "Hg (May 14, 3:00 AM)
Low38 °F (May 16, 6:00 AM)37% (May 15, 5:00 PM)29.61 "Hg (May 13, 10:00 AM)
Average55 °F76%29.99 "Hg
* Reported May 13 10:00 AM — May 28 10:00 AM, Renens, Weather by CustomWeather, © 2016

Note: Actual official high and low records may vary slightly from our data, if they occured in-between our weather recording intervals... More about our weather records

Advertising

Renens Weather History for the Previous 24 Hours

Scroll right to see more
 ConditionsComfort  
Time TempWeatherWind HumidityBarometerVisibility
10:00 AM
Sat, May 28
63 °FMild.2 mph90%29.95 "HgN/A
9:00 AM63 °FMild.8 mph87%29.96 "HgN/A
8:00 AM63 °FPartly sunny.1 mph89%29.94 "Hg19 mi
7:00 AM62 °FMild.5 mph91%29.94 "HgN/A
6:00 AM62 °FCool.2 mph94%29.93 "HgN/A
5:00 AM62 °FOvercast.2 mph92%29.94 "Hg12 mi
4:00 AM62 °FCool.2 mph90%29.95 "HgN/A
3:00 AM64 °FMild.2 mph85%29.96 "HgN/A
2:00 AM65 °FMild.14 mph81%29.95 "HgN/A
1:00 AM66 °FMild.15 mph74%29.91 "HgN/A
12:00 AM64 °FMild.5 mph83%29.89 "HgN/A
11:00 PM
Fri, May 27
64 °FMild.3 mph87%29.90 "HgN/A
10:00 PM66 °FMild.5 mph82%29.89 "HgN/A
9:00 PM67 °FMild.2 mph84%29.88 "HgN/A
8:00 PM72 °FScattered clouds.1 mph75%29.86 "Hg11 mi
7:00 PM74 °FMild.2 mph66%29.85 "HgN/A
6:00 PM75 °FMild.2 mph62%29.87 "HgN/A
5:00 PM74 °FPartly sunny.2 mph50%29.88 "Hg12 mi
4:00 PM75 °FMild.5 mph49%29.88 "HgN/A
3:00 PM75 °FMild.7 mph49%29.89 "HgN/A
2:00 PM72 °FPassing clouds.8 mph53%29.90 "Hg22 mi
1:00 PM71 °FMild.8 mph56%29.92 "HgN/A
12:00 PM71 °FMild.7 mph59%29.93 "HgN/A
11:00 AM68 °FPassing clouds.6 mph65%29.94 "Hg25 mi
Weather by CustomWeather, © 2016

See weather overviewHow to use our weather pages